Theta_e
341 342 342 342 342 340 340 342 345 345 343 344 346 350 349 348 349 347 346 346 346 345 345 344 344 345 345 345 343 343 341 337 334 338 337 344 345 347 349 350 351 350 352
341 340 339 339 340 343 341 340 341 345 344 344 346 346 350 350 348 347 346 349 346 345 346 344 345 348 345 345 344 343 342 342 340 338 340 344 345 347 349 347 348 351 349
342 340 339 338 338 339 343 342 339 343 345 348 347 346 349 349 348 349 347 346 346 346 348 347 347 346 344 345 346 345 346 347 344 341 342 344 345 346 347 347 346 344 348
342 342 340 338 338 338 340 344 344 340 343 345 349 349 348 349 349 349 349 347 347 347 347 347 348 348 347 346 346 345 345 345 344 343 342 343 343 345 343 342 339 341 342
341 341 341 342 339 338 338 341 343 344 344 344 346 349 348 348 350 347 348 348 347 345 346 347 348 349 347 346 349 346 345 344 344 343 342 342 343 341 340 339 338 339 342
342 342 343 343 342 338 337 337 341 342 344 345 346 346 348 351 340 338 345 346 346 345 344 345 348 347 345 340 339 339 344 345 343 342 343 343 344 339 337 337 336 336 335
343 343 344 341 342 342 339 336 337 340 340 342 345 348 348 349 336 335 339 348 346 346 346 346 346 351 345 349 341 337 336 335 341 347 342 342 340 340 338 336 336 337 337
343 345 346 344 342 343 343 340 336 338 339 337 340 345 348 350 334 331 336 346 346 346 347 347 347 347 346 346 346 345 344 345 341 340 341 345 343 345 342 342 340 340 342
338 335 337 338 343 345 343 343 343 340 338 338 336 336 343 346 330 330 332 345 347 348 348 347 348 348 340 333 344 344 343 345 340 333 334 333 332 332 335 339 338 339 337
324 328 334 336 335 339 346 344 345 345 343 343 341 338 335 343 329 326 331 348 347 347 349 347 333 343 331 326 341 344 341 344 342 340 340 335 331 336 331 338 341 339 336
322 325 329 333 336 336 338 348 346 345 346 345 345 344 341 341 344 324 323 348 349 347 347 347 346 328 322 320 323 346 343 343 339 340 340 341 343 345 348 342 341 343 341
320 323 325 329 334 340 338 344 348 346 345 346 346 347 348 348 329 324 320 325 339 349 349 350 347 323 319 318 319 325 324 327 335 335 337 341 342 345 348 349 348 345 349
317 321 322 327 330 333 336 342 348 347 346 346 346 346 348 351 350 324 319 319 324 343 353 344 330 319 315 316 317 321 321 328 333 332 335 339 342 346 345 344 346 348 348
313 316 320 325 325 328 337 348 348 348 345 346 347 346 347 348 351 353 338 329 322 329 336 343 337 330 327 331 330 325 328 332 335 336 337 338 338 339 340 342 343 344 345
312 315 318 323 324 326 332 346 350 352 347 347 348 349 347 347 349 339 342 347 345 337 338 345 347 337 338 339 338 338 335 331 331 333 334 335 336 337 339 343 345 343 345
309 312 313 318 322 326 329 332 322 319 315 313 314 337 350 331 322 313 313 312 315 312 334 346 346 346 346 344 344 344 342 339 340 339 339 340 340 340 341 343 345 346 346
306 308 311 314 319 323 327 329 331 333 311 308 309 311 313 324 311 308 309 307 304 312 348 345 347 347 346 346 346 346 346 347 347 344 342 341 342 343 341 344 346 345 345
304 306 308 313 316 321 325 328 332 334 339 345 319 313 309 308 304 304 301 310 318 322 344 348 346 347 347 346 347 347 347 346 343 344 344 343 344 345 344 345 345 347 347
303 305 307 310 313 318 323 325 328 331 334 342 338 318 308 305 306 300 304 340 343 338 337 342 347 349 347 347 346 346 347 347 345 346 347 348 349 348 347 348 347 328 331
304 307 310 314 315 320 324 321 321 325 328 333 342 340 324 320 326 328 325 331 339 338 336 338 342 344 345 345 346 347 347 347 347 348 349 349 349 349 349 347 346 340 340
302 303 308 312 315 316 315 314 315 315 320 321 320 316 314 334 336 337 336 324 320 318 319 319 317 314 313 314 319 326 339 347 344 345 345 345 348 349 349 346 343 340 339
300 301 302 306 310 311 309 310 309 310 309 312 312 311 303 317 316 312 310 308 309 307 308 307 305 304 305 304 305 308 313 316 320 324 327 332 342 346 344 343 342 339 338
298 298 297 301 304 304 305 304 304 304 305 306 306 306 306 305 305 305 304 303 303 302 304 303 302 301 303 301 302 302 302 302 307 308 317 326 335 340 339 341 340 337 336
297 297 297 298 298 298 299 299 300 298 299 301 300 300 301 302 301 300 300 299 299 300 302 301 297 297 297 297 298 297 295 293 298 305 309 319 328 327 335 339 339 338 337
295 294 294 294 294 294 295 295 295 296 296 295 296 297 296 296 296 297 296 296 295 297 295 295 296 295 294 294 293 292 288 286 297 294 309 316 319 319 321 323 325 327 331
293 293 293 293 292 292 292 292 292 292 293 293 293 293 293 293 294 294 294 293 292 292 292 292 292 291 291 290 289 287 285 286 293 292 305 309 308 308 311 314 316 318 318
Wind_Speed
15 14 12 10 8 8 7 7 7 6 6 6 7 7 7 7 6 6 6 5 5 5 3 4 5 3 2 2 1 1 2 3 2 4 3 3 3 5 7 5 5 5 5
17 14 13 11 9 9 10 9 7 7 6 7 7 6 7 8 7 7 7 5 6 6 6 5 6 3 4 3 2 4 3 3 3 4 3 3 3 3 4 6 5 6 5
11 14 14 13 12 12 11 9 7 7 7 6 7 7 7 9 8 8 8 7 7 7 6 6 6 5 6 3 3 4 3 2 3 3 4 2 3 2 4 3 4 6 5
10 13 14 14 15 14 13 10 11 10 9 7 6 7 7 8 9 8 8 7 7 7 7 6 6 6 6 6 5 6 4 3 3 3 3 3 2 2 2 2 5 2 5
11 10 15 14 13 13 13 13 10 11 11 10 9 7 8 7 7 7 8 8 8 7 7 7 7 8 10 8 4 5 4 3 3 3 3 3 3 2 3 1 3 4 4
12 14 10 11 12 12 12 13 12 12 12 10 10 11 9 8 11 13 10 8 8 8 8 7 7 8 9 12 12 11 7 5 4 3 3 5 6 3 2 2 2 2 4
12 15 14 9 10 12 11 11 13 13 12 12 12 12 13 12 14 15 15 9 8 8 8 7 7 7 9 7 9 12 11 12 13 6 6 6 5 4 3 3 4 3 4
5 6 4 9 11 9 11 13 14 12 14 13 13 13 13 12 14 15 15 11 8 10 10 9 9 9 7 8 7 7 7 7 7 6 9 11 7 8 6 4 3 4 4
4 3 2 2 2 9 10 15 14 13 13 13 13 14 15 15 16 17 12 9 10 12 9 9 10 10 11 12 8 9 9 10 6 12 13 13 12 11 6 1 3 3 3
9 8 5 3 4 5 10 15 13 12 14 11 13 13 15 17 15 18 16 10 12 10 9 9 14 14 12 12 10 9 9 13 6 5 5 7 10 9 10 8 4 4 3
10 7 5 7 8 7 7 8 11 11 12 13 13 12 13 14 15 19 19 13 11 10 9 10 9 14 17 14 15 11 13 10 6 6 5 5 5 6 5 6 7 6 4
12 12 11 10 6 6 7 8 12 12 12 14 13 11 10 12 14 15 19 21 16 13 11 9 10 12 15 15 9 17 14 10 3 4 5 8 7 7 7 5 7 8 8
9 10 10 11 9 9 11 11 9 11 11 12 11 10 10 9 11 18 18 19 21 12 12 11 12 12 12 10 14 16 11 5 6 5 7 9 7 6 4 3 4 5 6
10 11 10 12 12 8 10 8 6 10 12 12 11 11 10 9 9 9 8 9 16 11 14 9 6 5 8 8 6 8 6 7 8 8 8 7 3 3 4 4 3 3 2
9 8 8 9 11 13 9 9 10 14 14 13 12 11 10 11 12 14 12 10 10 12 8 7 7 4 6 6 6 6 5 5 7 7 6 6 5 3 4 3 3 3 5
7 7 6 7 7 11 10 9 8 9 13 14 13 13 10 13 11 14 16 14 15 13 5 8 9 9 10 9 8 8 7 9 9 8 7 8 8 7 6 4 4 5 5
4 7 7 7 6 7 8 8 7 5 2 9 17 17 15 12 15 15 18 10 9 10 7 8 9 10 10 9 8 8 9 9 7 7 8 8 7 7 5 5 5 4 6
5 9 7 4 6 8 8 8 6 6 5 6 10 13 13 13 8 10 11 12 3 5 8 9 9 9 9 9 8 9 8 6 6 7 8 7 7 6 5 5 6 8 7
5 4 6 4 6 8 7 8 6 6 5 6 3 3 4 2 11 9 13 6 8 6 8 9 9 9 8 8 7 7 8 7 6 6 7 7 8 7 7 7 6 8 6
4 7 8 6 5 5 5 5 7 6 4 5 5 5 4 4 4 6 6 7 6 5 4 5 6 6 6 7 6 6 6 7 7 7 7 7 7 8 8 7 6 6 7
3 3 9 5 5 3 4 4 5 6 5 4 4 7 9 6 4 4 4 4 4 4 4 4 4 5 5 5 5 4 4 5 5 7 5 5 5 5 7 6 5 4 5
4 2 3 3 4 3 4 4 5 3 4 4 4 8 14 6 6 6 6 6 6 7 6 6 7 7 5 5 5 5 6 7 7 7 6 4 4 6 5 4 5 4 4
3 3 2 1 2 3 4 5 5 5 4 6 6 7 7 7 7 6 7 7 7 8 7 6 8 7 7 7 5 6 6 6 7 7 8 7 5 3 3 3 3 4 4
3 3 2 2 3 6 5 5 5 6 6 7 7 8 7 7 7 8 7 8 8 7 6 7 9 10 5 5 7 6 5 7 6 7 10 8 7 5 1 3 3 3 4
4 4 5 5 5 6 5 7 7 7 6 7 7 7 7 9 7 8 9 8 8 8 10 9 7 11 11 15 11 14 13 9 8 9 7 9 9 11 6 4 4 1 1
6 6 6 5 6 5 6 7 6 6 6 7 8 8 8 8 8 8 7 8 9 8 10 8 8 16 17 11 10 16 14 14 12 15 9 9 10 9 7 6 8 5 3
Wind_Direction
195 190 195 199 181 168 186 201 207 206 198 214 198 199 197 199 197 199 209 217 225 241 245 227 252 228 248 259 193 160 180 166 205 295 250 280 300 328 327 323 326 337 342
192 191 198 194 190 190 188 194 196 214 201 207 212 206 204 203 192 197 210 213 215 229 240 230 253 243 252 242 238 241 219 192 187 265 265 290 273 316 296 318 329 343 333
208 198 189 197 200 207 204 189 181 205 222 208 205 205 209 208 194 199 205 210 217 226 233 231 246 238 262 256 231 244 248 236 216 229 280 269 271 303 326 306 322 321 312
190 203 205 203 202 207 212 201 187 192 208 215 210 214 208 208 205 199 201 212 221 227 230 231 240 235 237 248 251 250 253 259 243 247 271 278 253 304 270 294 323 306 317
190 202 210 209 207 205 211 213 201 192 201 206 210 208 217 205 207 198 199 210 216 230 232 232 236 231 224 226 221 250 244 250 266 275 282 285 290 303 296 304 265 295 290
200 214 214 213 207 205 207 215 211 211 204 190 207 213 209 220 217 204 203 209 213 222 238 239 236 237 242 239 240 242 226 231 248 227 250 267 276 249 251 246 253 320 324
212 213 208 207 211 207 203 207 220 219 213 209 209 207 217 220 215 210 205 217 218 221 225 233 242 240 230 237 240 241 240 231 232 231 252 248 264 228 219 269 232 221 239
49 157 151 209 216 211 204 207 216 219 219 216 217 213 215 221 205 207 209 221 220 229 228 223 229 244 228 221 237 252 252 244 230 219 225 256 238 258 202 227 228 248 279
1 13 41 55 326 221 223 220 217 218 222 220 218 217 217 222 205 205 189 213 228 234 230 229 229 239 233 215 228 250 261 264 231 230 228 237 249 253 234 132 242 217 272
328 311 284 281 220 267 236 235 231 219 226 222 223 218 218 226 207 207 197 216 230 237 237 238 225 233 229 206 216 234 253 262 245 258 249 253 248 255 231 203 196 226 207
314 308 309 258 222 218 241 234 228 217 225 225 224 220 217 215 220 204 200 210 221 230 233 237 235 223 231 226 216 236 238 262 254 243 250 254 254 246 243 201 197 198 207
331 337 347 326 299 262 228 256 221 214 214 227 222 223 220 219 216 210 204 206 215 226 230 231 239 222 224 227 214 240 247 255 241 245 262 271 264 259 257 222 208 206 218
325 315 332 321 313 276 250 237 217 214 214 217 222 220 222 216 221 214 204 204 222 225 234 235 236 225 222 227 226 236 241 223 239 239 244 252 246 253 252 246 236 242 229
328 333 324 310 304 258 248 223 212 211 214 220 209 221 219 214 217 217 208 206 228 225 245 247 257 239 220 235 229 223 213 212 221 236 240 245 240 222 232 202 223 182 232
307 308 323 315 315 305 331 302 227 218 207 206 216 209 207 214 216 205 199 198 205 212 205 230 236 213 235 237 236 230 216 199 212 222 231 239 236 229 236 198 203 189 210
312 312 310 308 322 315 311 310 266 242 230 221 234 216 223 222 207 203 209 200 195 167 179 219 224 230 234 236 233 232 219 217 222 220 224 231 238 232 230 192 182 200 217
270 292 297 309 315 300 298 303 314 300 230 237 232 227 217 205 207 203 210 205 148 145 208 207 222 223 229 230 226 223 230 223 213 216 222 226 224 225 199 204 205 204 231
270 276 272 296 301 298 297 285 283 274 288 251 227 222 237 234 220 218 138 125 127 222 213 223 218 223 220 222 221 221 228 220 205 216 214 212 211 210 196 210 210 221 233
291 291 288 290 279 283 294 295 288 284 276 276 248 221 131 192 213 160 179 219 213 201 203 220 223 225 222 217 214 217 220 220 206 208 212 207 203 195 214 213 207 199 178
291 309 304 300 268 277 301 319 301 290 309 274 256 240 154 136 184 193 203 209 212 215 194 207 220 215 212 212 219 222 221 219 213 210 221 217 214 198 206 207 204 186 199
300 328 322 323 321 345 330 324 318 326 344 360 344 324 257 191 185 179 157 75 53 49 24 53 49 54 29 14 4 335 287 239 231 219 206 210 200 213 219 197 179 178 160
304 342 347 330 314 341 342 350 329 342 1 7 3 0 12 63 79 88 79 81 78 63 56 66 56 32 29 50 18 28 12 5 347 331 317 272 224 219 203 180 164 163 178
344 358 341 354 314 9 36 13 349 356 27 36 39 28 28 48 58 59 77 69 65 71 48 60 73 44 18 23 32 43 33 10 334 321 307 303 298 239 211 196 164 160 189
33 26 339 25 25 56 41 32 6 18 32 50 54 46 41 48 55 72 55 70 68 66 74 70 71 65 46 18 10 45 58 25 323 322 327 316 309 303 34 148 164 226 235
56 52 48 36 35 51 52 44 19 21 29 47 55 59 62 56 46 54 60 55 55 51 54 53 37 73 39 39 34 20 2 12 38 17 358 352 353 347 352 358 348 336 283
56 52 55 43 52 31 57 60 38 17 28 45 56 60 52 60 57 54 55 71 70 50 56 59 55 44 52 23 15 34 13 348 31 33 27 24 16 1 337 9 358 327 12